Location: The Saddle
(36.8333°N, 80.3417°W)
Time: 04:18:16
(UTC-04:00)

Vanguard 3 - Pass Details

Date: 23 February 2024
Orbit: 510 x 3234 km, 33.3° (Epoch: 24 April)

Event Time Altitude Azimuth Distance (km) Brightness Sun altitude
Rises 20:39:40 0° 232° (SW) 6,767 12.4 -30.7°
Reaches altitude 10° 20:44:00 10° 229° (SW) 5,945 11.9 -31.5°
Maximum altitude 21:03:00 60° 156° (SSE) 3,484 9.9 -35.2°
Enters shadow 21:06:23 55° 124° (ESE) 3,518 9.8 -35.9°
